FW4301 Weather Reports


Display with metric or nautical units.
time (UTC)temp
F
wind
direction
speed
MPH
gust
MPH
rain 1hr
in
rain 24hr
in
rain mn
in
humidity
%
barometer
mb
20260508231547 77 0 0.0 0.0 0.00 0.00 0.00 65 1008.4
20260508231030 77 0 0.0 1.0 0.00 0.00 0.00 65 1008.4
20260508230529 77 0 0.0 1.0 0.00 0.00 0.00 65 1008.4
20260508230046 77 0 0.0 1.0 0.00 0.00 0.00 65 1008.4
20260508225529 76 0 0.0 1.0 0.00 0.00 0.00 65 1008.5
20260508225029 76 0 0.0 1.0 0.00 0.00 0.00 65 1008.6
20260508224546 76 0 0.0 2.0 0.00 0.00 0.00 65 1008.6
20260508224029 76 0 0.0 2.0 0.00 0.00 0.00 65 1008.6
20260508223529 76 40 0.0 2.0 0.00 0.00 0.00 64 1008.6
20260508223043 76 0 0.0 2.0 0.00 0.00 0.00 64 1008.8
20260508222528 76 0 0.0 2.0 0.00 0.00 0.00 65 1008.9
20260508222029 76 0 0.0 1.0 0.00 0.00 0.00 65 1008.9
20260508221543 76 0 0.0 0.0 0.00 0.00 0.00 65 1009.0
20260508221030 76 0 0.0 0.0 0.00 0.00 0.00 65 1009.2
20260508220530 75 0 0.0 1.0 0.00 0.00 0.00 65 1009.3
20260508220046 75 0 0.0 1.0 0.00 0.00 0.00 65 1009.4
20260508215529 75 0 0.0 0.0 0.00 0.00 0.00 65 1009.4
20260508215029 75 0 0.0 1.0 0.00 0.00 0.00 64 1009.5
20260508214546 75 0 0.0 1.0 0.00 0.00 0.00 64 1009.6
20260508214030 75 0 0.0 0.0 0.00 0.00 0.00 65 1009.6
20260508213529 75 0 0.0 4.0 0.00 0.00 0.00 64 1009.6
20260508213045 75 0 0.0 4.0 0.00 0.00 0.00 64 1009.6
20260508212528 75 0 0.0 4.0 0.00 0.00 0.00 65 1009.3
20260508212028 74 0 0.0 4.0 0.00 0.00 0.00 66 1009.2
20260508211545 74 40 0.0 2.0 0.00 0.00 0.00 65 1009.2
20260508211029 73 0 0.0 2.0 0.00 0.00 0.00 66 1009.4
20260508210526 73 0 0.0 2.0 0.00 0.00 0.00 67 1009.4
20260508210048 72 0 0.0 3.0 0.00 0.00 0.00 66 1009.5
20260508205529 72 0 0.0 3.0 0.00 0.00 0.00 67 1009.6
20260508205029 71 0 0.0 3.0 0.00 0.00 0.00 67 1009.8
20260508204550 71 0 0.0 0.0 0.00 0.00 0.00 67 1009.8
20260508204028 71 0 0.0 1.0 0.00 0.00 0.00 68 1010.0
20260508203528 71 0 0.0 1.0 0.00 0.00 0.00 67 1010.2
20260508203048 70 0 0.0 2.0 0.00 0.00 0.00 66 1010.6
20260508202527 70 0 0.0 2.0 0.00 0.00 0.00 66 1010.9
20260508202029 70 0 0.0 0.0 0.00 0.00 0.00 65 1011.0
20260508201557 71 0 0.0 0.0 0.00 0.00 0.00 65 1011.3
20260508201029 71 0 0.0 0.0 0.00 0.00 0.00 64 1011.4
20260508200529 71 0 0.0 0.0 0.00 0.00 0.00 64 1011.4
20260508200042 71 0 0.0 1.0 0.00 0.00 0.00 64 1011.5
20260508195528 71 0 0.0 1.0 0.00 0.00 0.00 63 1011.4
20260508195029 71 0 0.0 1.0 0.00 0.00 0.00 62 1011.5
20260508194541 72 0 0.0 1.0 0.00 0.00 0.00 61 1011.5
20260508194028 72 0 0.0 0.0 0.00 0.00 0.00 62 1011.5
20260508193528 71 0 0.0 1.0 0.00 0.00 0.00 66 1011.1
20260508193040 71 0 0.0 1.0 0.00 0.00 0.00 64 1011.0
20260508192529 71 0 0.0 1.0 0.00 0.00 0.00 64 1011.0
20260508192028 71 0 0.0 2.0 0.00 0.00 0.00 64 1011.2
20260508191540 71 0 0.0 2.0 0.00 0.00 0.00 64 1011.2
20260508191025 71 0 0.0 2.0 0.00 0.00 0.00 63 1011.3
20260508190530 71 40 0.0 3.0 0.00 0.00 0.00 62 1011.3
20260508190047 71 0 0.0 3.0 0.00 0.00 0.00 62 1011.5
20260508185529 71 0 0.0 1.0 0.00 0.00 0.00 62 1011.7
20260508185029 71 0 0.0 1.0 0.00 0.00 0.00 63 1011.6
20260508184545 71 0 0.0 2.0 0.00 0.00 0.00 63 1011.7
20260508184028 70 0 0.0 2.0 0.00 0.00 0.00 63 1011.7
20260508183528 70 0 0.0 2.0 0.00 0.00 0.00 63 1011.9
20260508183040 70 0 0.0 1.0 0.00 0.00 0.00 64 1012.1
20260508182529 70 0 0.0 1.0 0.00 0.00 0.00 63 1012.1
20260508182028 70 0 0.0 1.0 0.00 0.00 0.00 63 1012.2
20260508181553 70 0 0.0 3.0 0.00 0.00 0.00 62 1012.4
20260508181031 71 0 0.0 3.0 0.00 0.00 0.00 62 1012.6
20260508180529 71 0 0.0 1.0 0.00 0.00 0.00 62 1012.7
20260508180047 71 0 0.0 1.0 0.00 0.00 0.00 61 1012.7
20260508175529 71 0 0.0 2.0 0.00 0.00 0.00 60 1012.5
20260508175030 72 0 0.0 2.0 0.00 0.00 0.00 58 1012.6
20260508174554 72 0 0.0 3.0 0.00 0.00 0.00 59 1012.6
20260508174029 72 0 0.0 3.0 0.00 0.00 0.00 60 1012.5
20260508173528 72 40 0.0 0.0 0.00 0.00 0.00 60 1012.5
20260508173045 72 0 0.0 0.0 0.00 0.00 0.00 59 1012.4
20260508172526 71 0 0.0 0.0 0.00 0.00 0.00 62 1012.4
20260508172029 71 0 0.0 2.0 0.00 0.00 0.00 62 1012.6
20260508171549 71 0 0.0 2.0 0.00 0.00 0.00 61 1012.9
20260508171028 71 0 0.0 2.0 0.00 0.00 0.00 61 1012.9
20260508170530 71 0 0.0 2.0 0.00 0.00 0.00 60 1012.9
20260508170039 71 0 0.0 1.0 0.00 0.00 0.00 61 1013.0
20260508165528 71 0 0.0 2.0 0.00 0.00 0.00 60 1013.1
20260508165028 71 0 0.0 2.0 0.00 0.00 0.00 59 1013.1
20260508164546 71 0 0.0 2.0 0.00 0.00 0.00 58 1013.3
20260508164029 72 0 0.0 2.0 0.00 0.00 0.00 59 1013.3
20260508163528 72 0 0.0 2.0 0.00 0.00 0.00 59 1013.2
20260508163051 71 0 0.0 2.0 0.00 0.00 0.00 60 1013.3
20260508162529 71 0 0.0 0.0 0.00 0.00 0.00 61 1013.4
20260508162028 71 0 0.0 0.0 0.00 0.00 0.00 63 1013.4
20260508161545 70 0 0.0 0.0 0.00 0.00 0.00 62 1013.5
20260508161029 69 0 0.0 0.0 0.00 0.00 0.00 64 1013.5
20260508160528 68 0 0.0 0.0 0.00 0.00 0.00 66 1013.7
20260508160041 68 0 0.0 0.0 0.00 0.00 0.00 66 1013.8
20260508155526 68 0 0.0 0.0 0.00 0.00 0.00 66 1014.0
20260508155029 67 0 0.0 0.0 0.00 0.00 0.00 65 1014.1
20260508154540 67 0 0.0 0.0 0.00 0.00 0.00 66 1014.2
20260508154053 67 0 0.0 0.0 0.00 0.00 0.00 67 1014.3
20260508153530 66 0 0.0 0.0 0.00 0.00 0.00 66 1014.4
20260508153052 66 0 0.0 0.0 0.00 0.00 0.00 67 1014.4
20260508152529 66 0 0.0 0.0 0.00 0.00 0.00 67 1014.5
20260508152030 66 0 0.0 0.0 0.00 0.00 0.00 68 1014.4
20260508151546 65 0 0.0 0.0 0.00 0.00 0.00 69 1014.6
20260508151029 65 0 0.0 0.0 0.00 0.00 0.00 69 1014.7
20260508150533 65 0 0.0 0.0 0.00 0.00 0.00 69 1014.7
20260508150046 65 0 0.0 0.0 0.00 0.00 0.00 70 1014.8
20260508145530 65 0 0.0 0.0 0.00 0.00 0.00 70 1014.7
20260508145032 64 0 0.0 0.0 0.00 0.00 0.00 71 1014.7
20260508144545 64 0 0.0 0.0 0.00 0.00 0.00 71 1014.7
20260508144030 64 0 0.0 0.0 0.00 0.00 0.00 71 1014.5
20260508143531 64 0 0.0 0.0 0.00 0.00 0.00 72 1014.6
20260508143040 63 0 0.0 0.0 0.00 0.00 0.00 73 1014.4
20260508142529 63 0 0.0 0.0 0.00 0.00 0.00 73 1014.5
20260508142030 63 0 0.0 0.0 0.00 0.00 0.00 74 1014.5
20260508141608 62 0 0.0 0.0 0.00 0.00 0.00 75 1014.5
20260508141030 62 0 0.0 0.0 0.00 0.00 0.00 75 1014.5
20260508140530 62 0 0.0 0.0 0.00 0.00 0.00 76 1014.6
20260508140046 62 0 0.0 0.0 0.00 0.00 0.00 77 1014.5
20260508135529 61 0 0.0 0.0 0.00 0.00 0.00 78 1014.6
20260508135030 61 0 0.0 0.0 0.00 0.00 0.00 78 1014.6
20260508134554 61 0 0.0 0.0 0.00 0.00 0.00 78 1014.6
20260508134029 61 0 0.0 0.0 0.00 0.00 0.00 79 1014.6
20260508133529 61 0 0.0 0.0 0.00 0.00 0.00 79 1014.6
20260508133043 60 0 0.0 0.0 0.00 0.00 0.00 79 1014.6
20260508132531 60 0 0.0 0.0 0.00 0.00 0.00 79 1014.7
20260508132030 60 0 0.0 0.0 0.00 0.00 0.00 79 1014.6
20260508131539 59 0 0.0 0.0 0.00 0.00 0.00 80 1014.7
20260508131032 59 0 0.0 0.0 0.00 0.00 0.00 79 1014.9
20260508130530 58 0 0.0 0.0 0.00 0.00 0.00 79 1014.9
20260508130039 58 0 0.0 0.0 0.00 0.00 0.00 79 1014.7
20260508125529 58 0 0.0 0.0 0.00 0.00 0.00 79 1014.8
20260508125029 57 0 0.0 0.0 0.00 0.00 0.00 78 1014.7
20260508124544 57 0 0.0 0.0 0.00 0.00 0.00 78 1014.7
20260508124032 56 0 0.0 0.0 0.00 0.00 0.00 77 1014.6
20260508123529 56 0 0.0 0.0 0.00 0.00 0.00 77 1014.6
20260508123048 56 0 0.0 0.0 0.00 0.00 0.00 77 1014.5
20260508122529 56 0 0.0 0.0 0.00 0.00 0.00 77 1014.4
20260508122032 56 0 0.0 0.0 0.00 0.00 0.00 77 1014.5
20260508121546 56 0 0.0 0.0 0.00 0.00 0.00 77 1014.3
20260508121031 56 0 0.0 0.0 0.00 0.00 0.00 77 1014.3
20260508120530 56 0 0.0 0.0 0.00 0.00 0.00 77 1014.4
20260508120048 56 0 0.0 0.0 0.00 0.00 0.00 77 1014.2
20260508115530 55 0 0.0 0.0 0.00 0.00 0.00 77 1014.2
20260508115029 55 0 0.0 0.0 0.00 0.00 0.00 76 1014.4
20260508114545 55 0 0.0 0.0 0.00 0.00 0.00 76 1014.6
20260508114030 55 0 0.0 0.0 0.00 0.00 0.00 76 1014.6
20260508113530 55 0 0.0 0.0 0.00 0.00 0.00 75 1014.3
20260508113102 55 0 0.0 0.0 0.00 0.00 0.00 75 1014.3
20260508112530 55 0 0.0 0.0 0.00 0.00 0.00 75 1014.1
20260508112030 55 0 0.0 0.0 0.00 0.00 0.00 75 1014.2
20260508111547 55 0 0.0 0.0 0.00 0.00 0.00 75 1014.2
20260508111029 55 0 0.0 0.0 0.00 0.00 0.00 75 1014.3
20260508110530 55 0 0.0 0.0 0.00 0.00 0.00 75 1014.5
20260508110047 55 0 0.0 0.0 0.00 0.00 0.00 75 1014.5
20260508105530 55 0 0.0 0.0 0.00 0.00 0.00 75 1014.5
20260508105030 55 0 0.0 0.0 0.00 0.00 0.00 75 1014.4
20260508104544 55 0 0.0 0.0 0.00 0.00 0.00 75 1014.5
20260508104030 55 0 0.0 0.0 0.00 0.00 0.00 75 1014.5
20260508103530 55 0 0.0 0.0 0.00 0.00 0.00 75 1014.4
20260508103049 56 0 0.0 0.0 0.00 0.00 0.00 74 1014.4
20260508102533 56 0 0.0 0.0 0.00 0.00 0.00 74 1014.4
20260508102029 56 0 0.0 0.0 0.00 0.00 0.00 74 1014.4
20260508101547 56 0 0.0 0.0 0.00 0.00 0.00 75 1014.5
20260508101029 56 0 0.0 0.0 0.00 0.00 0.00 75 1014.6
20260508100529 56 0 0.0 0.0 0.00 0.00 0.00 75 1014.5
20260508100045 57 0 0.0 0.0 0.00 0.00 0.00 75 1014.4
20260508095529 57 0 0.0 0.0 0.00 0.00 0.00 75 1014.1
20260508095029 57 0 0.0 0.0 0.00 0.00 0.00 75 1014.1
20260508094542 57 0 0.0 0.0 0.00 0.00 0.00 75 1013.8
20260508094031 57 0 0.0 0.0 0.00 0.00 0.00 75 1014.0
20260508093530 57 0 0.0 0.0 0.00 0.00 0.00 75 1013.9
20260508093046 57 0 0.0 0.0 0.00 0.00 0.00 75 1014.1
20260508092529 57 0 0.0 0.0 0.00 0.00 0.00 75 1014.3
20260508092029 58 0 0.0 0.0 0.00 0.00 0.00 75 1014.4
20260508091549 58 0 0.0 0.0 0.00 0.00 0.00 75 1014.4
20260508091030 58 0 0.0 0.0 0.00 0.00 0.00 75 1014.2
20260508090530 58 0 0.0 0.0 0.00 0.00 0.00 75 1014.2
20260508090042 58 0 0.0 0.0 0.00 0.00 0.00 75 1014.3
20260508085529 58 0 0.0 0.0 0.00 0.00 0.00 75 1014.2
20260508085029 58 0 0.0 0.0 0.00 0.00 0.00 75 1014.2
20260508084539 58 0 0.0 0.0 0.00 0.00 0.00 75 1014.2
20260508084030 58 0 0.0 0.0 0.00 0.00 0.00 75 1014.3
20260508083530 58 0 0.0 0.0 0.00 0.00 0.00 75 1014.5
20260508083104 58 0 0.0 0.0 0.00 0.00 0.00 75 1014.5
20260508082529 58 0 0.0 0.0 0.00 0.00 0.00 75 1014.5
20260508082030 58 0 0.0 0.0 0.00 0.00 0.00 75 1014.4
20260508081544 58 0 0.0 0.0 0.00 0.00 0.00 75 1014.4
20260508081031 58 0 0.0 0.0 0.00 0.00 0.00 75 1014.8
20260508080533 58 0 0.0 0.0 0.00 0.00 0.00 75 1015.0
20260508080040 58 0 0.0 0.0 0.00 0.00 0.00 75 1015.2
20260508075530 58 0 0.0 0.0 0.00 0.00 0.00 75 1015.3
20260508075029 57 0 0.0 0.0 0.00 0.00 0.00 73 1015.4
20260508074548 57 0 0.0 0.0 0.00 0.00 0.00 71 1015.4
20260508074030 57 0 0.0 0.0 0.00 0.00 0.00 70 1015.3
20260508073534 57 0 0.0 0.0 0.00 0.00 0.00 69 1015.4
20260508073039 57 0 0.0 0.0 0.00 0.00 0.00 69 1015.3
20260508072529 57 0 0.0 0.0 0.00 0.00 0.00 68 1015.3
20260508072030 57 0 0.0 0.0 0.00 0.00 0.00 68 1015.3
20260508071545 56 0 0.0 0.0 0.00 0.00 0.00 67 1015.1
20260508071031 56 0 0.0 0.0 0.00 0.00 0.00 67 1014.8
20260508070531 56 0 0.0 0.0 0.00 0.00 0.00 67 1014.7
20260508070053 56 0 0.0 0.0 0.00 0.00 0.00 67 1014.7
20260508065530 56 0 0.0 0.0 0.00 0.00 0.00 67 1014.9
20260508065029 57 0 0.0 0.0 0.00 0.00 0.00 66 1015.0
20260508064546 57 0 0.0 0.0 0.00 0.00 0.00 66 1015.1
20260508064031 57 0 0.0 0.0 0.00 0.00 0.00 66 1015.1
20260508063530 57 0 0.0 0.0 0.00 0.00 0.00 66 1015.1
20260508063048 57 0 0.0 0.0 0.00 0.00 0.00 66 1015.3
20260508062529 57 0 0.0 0.0 0.00 0.00 0.00 66 1015.3
20260508062029 57 0 0.0 0.0 0.00 0.00 0.00 66 1015.5
20260508061544 58 0 0.0 0.0 0.00 0.00 0.00 66 1015.5
20260508061029 58 0 0.0 0.0 0.00 0.00 0.00 66 1015.4
20260508060529 58 0 0.0 0.0 0.00 0.00 0.00 66 1015.6
20260508060047 58 0 0.0 0.0 0.00 0.00 0.00 66 1015.7
20260508055533 58 0 0.0 0.0 0.00 0.00 0.00 66 1015.7
20260508055030 58 0 0.0 0.0 0.00 0.00 0.00 66 1015.8
20260508054545 58 0 0.0 0.0 0.00 0.00 0.00 66 1015.8
20260508054029 58 0 0.0 0.0 0.00 0.00 0.00 66 1015.7
20260508053529 58 0 0.0 0.0 0.00 0.00 0.00 65 1015.7
20260508053042 58 0 0.0 0.0 0.00 0.00 0.00 65 1015.8
20260508052530 59 0 0.0 0.0 0.00 0.00 0.00 65 1015.9
20260508052033 59 0 0.0 0.0 0.00 0.00 0.00 65 1015.9
20260508051540 59 0 0.0 0.0 0.00 0.00 0.00 65 1016.0
20260508051030 59 0 0.0 0.0 0.00 0.00 0.00 65 1016.0
20260508050530 59 0 0.0 0.0 0.00 0.00 0.00 65 1015.8
20260508050050 59 0 0.0 0.0 0.00 0.00 0.00 65 1015.9
20260508045536 59 0 0.0 0.0 0.00 0.00 0.00 64 1015.9
20260508045029 59 0 0.0 0.0 0.00 0.00 0.00 64 1015.7
20260508044545 59 0 0.0 0.0 0.00 0.00 0.00 64 1015.6
20260508044029 60 0 0.0 0.0 0.00 0.00 0.00 64 1015.7
20260508043532 60 0 0.0 0.0 0.00 0.00 0.00 64 1015.7
20260508043045 60 0 0.0 0.0 0.00 0.00 0.00 64 1015.8
20260508042530 60 0 0.0 0.0 0.00 0.00 0.00 64 1015.8
20260508042029 60 0 0.0 0.0 0.00 0.00 0.00 64 1015.7
20260508041539 60 0 0.0 0.0 0.00 0.00 0.00 64 1015.8
20260508041032 60 0 0.0 0.0 0.00 0.00 0.00 64 1015.7
20260508040530 60 0 0.0 0.0 0.00 0.00 0.00 64 1015.6
20260508040046 60 0 0.0 0.0 0.00 0.00 0.00 63 1015.8
20260508035529 61 0 0.0 0.0 0.00 0.00 0.00 63 1015.8
20260508035032 61 0 0.0 0.0 0.00 0.00 0.00 64 1015.7
20260508034546 61 0 0.0 0.0 0.00 0.00 0.00 64 1015.7
20260508034030 61 0 0.0 0.0 0.00 0.00 0.00 64 1015.5
20260508033530 61 0 0.0 0.0 0.00 0.00 0.00 64 1015.5
20260508033040 61 0 0.0 0.0 0.00 0.00 0.00 63 1015.5
20260508032529 61 0 0.0 0.0 0.00 0.00 0.00 63 1015.3
20260508032030 61 0 0.0 0.0 0.00 0.00 0.00 63 1015.1
20260508031541 61 0 0.0 0.0 0.00 0.00 0.00 63 1015.2
20260508031029 61 0 0.0 0.0 0.00 0.00 0.00 63 1015.0
20260508030527 62 0 0.0 0.0 0.00 0.00 0.00 63 1015.1
20260508030044 62 0 0.0 0.0 0.00 0.00 0.00 63 1015.0
20260508025529 62 0 0.0 0.0 0.00 0.00 0.00 63 1015.0
20260508025026 62 0 0.0 0.0 0.00 0.00 0.00 63 1014.8
20260508024540 62 0 0.0 0.0 0.00 0.00 0.00 63 1014.9
20260508024027 62 0 0.0 0.0 0.00 0.00 0.00 63 1015.0
20260508023530 62 0 0.0 0.0 0.00 0.00 0.00 63 1014.9
20260508023046 63 0 0.0 0.0 0.00 0.00 0.00 63 1014.9
20260508022527 63 0 0.0 0.0 0.00 0.00 0.00 62 1014.9
20260508022030 63 0 0.0 0.0 0.00 0.00 0.00 62 1014.9
20260508021549 63 0 0.0 0.0 0.00 0.00 0.00 62 1014.9
20260508021033 63 0 0.0 0.0 0.00 0.00 0.00 62 1014.9
20260508020527 64 0 0.0 0.0 0.00 0.00 0.00 62 1015.0
20260508020041 64 0 0.0 0.0 0.00 0.00 0.00 61 1015.0
20260508015529 64 0 0.0 0.0 0.00 0.00 0.00 60 1015.0
20260508015029 64 0 0.0 0.0 0.00 0.00 0.00 60 1015.0
20260508014540 65 0 0.0 0.0 0.00 0.00 0.00 60 1015.2
20260508014029 65 0 0.0 0.0 0.00 0.00 0.00 60 1015.0
20260508013526 65 0 0.0 0.0 0.00 0.00 0.00 60 1014.9
20260508013042 65 0 0.0 0.0 0.00 0.00 0.00 59 1014.9
20260508012529 66 0 0.0 0.0 0.00 0.00 0.00 58 1014.9
20260508012029 66 0 0.0 0.0 0.00 0.00 0.00 57 1015.0
20260508011545 66 0 0.0 0.0 0.00 0.00 0.00 57 1014.9
20260508011031 66 0 0.0 0.0 0.00 0.00 0.00 57 1014.8
20260508010529 66 0 0.0 0.0 0.00 0.00 0.00 56 1014.8
20260508010044 66 0 0.0 0.0 0.00 0.00 0.00 56 1014.9
20260508005530 67 0 0.0 0.0 0.00 0.01 0.00 55 1014.9
20260508005029 67 0 0.0 0.0 0.00 0.01 0.00 54 1015.0
20260508004542 67 0 0.0 0.0 0.00 0.01 0.00 55 1014.9
20260508004029 67 0 0.0 0.0 0.00 0.01 0.00 55 1014.9
20260508003526 67 0 0.0 0.0 0.00 0.01 0.00 56 1015.0
20260508003046 67 0 0.0 0.0 0.00 0.01 0.00 54 1015.1
20260508002529 67 0 0.0 0.0 0.00 0.01 0.00 53 1015.1
20260508002029 67 0 0.0 0.0 0.00 0.01 0.00 53 1015.0
20260508001546 67 0 0.0 0.0 0.00 0.01 0.00 53 1015.0
20260508001029 67 0 0.0 0.0 0.00 0.01 0.00 53 1015.0
20260508000530 67 0 0.0 0.0 0.00 0.01 0.00 53 1015.0
20260508000045 68 0 0.0 0.0 0.00 0.01 0.00 53 1015.2
20260507235530 68 0 0.0 0.0 0.00 0.01 0.00 52 1015.2
20260507235030 68 0 0.0 0.0 0.00 0.01 0.00 52 1015.4
20260507234543 68 0 0.0 0.0 0.00 0.01 0.00 51 1015.6
20260507234030 68 0 0.0 0.0 0.00 0.01 0.00 50 1015.6
20260507233530 68 0 0.0 0.0 0.00 0.01 0.00 49 1015.6
20260507233041 68 0 0.0 0.0 0.00 0.01 0.00 49 1015.4
20260507232530 68 0 0.0 0.0 0.00 0.01 0.00 50 1015.2
20260507232029 68 0 0.0 0.0 0.00 0.01 0.00 49 1015.0